Weather Roundup
Issued by NWS

Home | Current Version | Previous Version | Text Only | Print | Product List | Glossary On
Versions: 1 2 3 4 5 6 7 8 9 10 11 12 13 14 15 16 17 18 19 20 21 22 23 24 25 26 27 28 29 30 31 32 33 34 35 36 37 38 39 40 41 42 43 44 45 46 47 48 49 50
993
NZUS93 KARX 251310
HRRWXR

CURRENT HOURLY OBSERVATIONS ACROSS
MUCH OF THE UPPER MISSISSIPPI VALLEY
NATIONAL WEATHER SERVICE LA CROSSE WI
800 AM CDT WED APR 25 2018


...SOUTHEAST MINNESOTA...


CITY           SKY/WX    TMP DP  RH WIND       PRES   REMARKS
ROCHESTER      FAIR      39  30  70 N12       30.22R WCI  32
ROCHESTER/MAYO FAIR      39  28  65 N5        30.22S
WINONA         FAIR      41  32  70 NE3       30.21S
AUSTIN         FAIR      39  30  70 N6        30.22R WCI  35
ALBERT LEA     FAIR      37  28  70 N5        30.23R WCI  34
DODGE CENTER   FAIR      37  28  70 N9        30.22R WCI  31
PRESTON        FAIR      38  32  81 N5        30.21R WCI  34
OWATONNA       FAIR      37  28  70 NE9       30.23S WCI  31
FARIBAULT      NOT AVBL
$$

...ELSEWHERE IN MINNESOTA...


CITY           SKY/WX    TMP DP  RH WIND       PRES   REMARKS
MINNEAPOLIS    FAIR      39  26  59 NE9       30.26S WCI  33
INTNL FALLS    FAIR      31  26  82 S5        30.20F WCI  26
DULUTH         FAIR      35  25  66 CALM      30.24S
RED WING       FAIR      39  23  52 NE5       30.24S
REDWOOD FALLS  SUNNY     36  28  73 N5        30.28R WCI  32
MANKATO        FAIR      37  28  70 N7        30.26R WCI  32
WORTHINGTON    SUNNY     35  30  82 N8        30.27S WCI  29
FAIRMONT       SUNNY     36  30  79 NW8       30.26R WCI  30
$$

...SOUTHWEST WISCONSIN...


CITY           SKY/WX    TMP DP  RH WIND       PRES   REMARKS
LA CROSSE      FAIR      43  35  73 N8        30.21S
PRAIRIE DU CHI FAIR      45  34  66 N5        30.19R
BOSCOBEL       FAIR      46  37  71 NE8       30.18S
LONE ROCK      FAIR      46  38  73 NE12G20   30.17S
PLATTEVILLE    FAIR      46  39  77 N10       30.16R
FORT MC COY    FAIR      38  34  88 N7        30.22S WCI  32
CAMP DOUGLAS   MOSUNNY   39  36  87 N3        30.19S
MAUSTON-NEW LI PTSUNNY   40  36  85 N5        30.19S
VIROQUA        FAIR      40  38  93 NE12      30.17S WCI  33
WIS DELLS      FAIR      40  35  80 NE8       30.17S
$$

...ELSEWHERE IN WISCONSIN...


CITY           SKY/WX    TMP DP  RH WIND       PRES   REMARKS
MILWAUKEE      FAIR      45  33  63 N16G25    30.13R
MADISON        FAIR      43  36  76 N14       30.15S
GREEN BAY      FAIR      39  29  67 N15       30.18S WCI  31
EAU CLAIRE     FAIR      37  27  67 NE8       30.23S WCI  31
BLACK RVR FLS  FAIR      38  32  77 NE8       30.22R WCI  33
MEDFORD        FAIR      33  28  82 NE6       30.21R WCI  27
WAUSAU         FAIR      34  27  75 N8        30.19R WCI  27
WIS RAPIDS     FAIR      39  28  64 N12       30.21R WCI  32
MARSHFIELD     FAIR      36  29  75 NE9       30.19R WCI  29
RICE LAKE      FAIR      35  28  75 N5        30.26S WCI  31
$$

...NORTHEAST IOWA...


CITY           SKY/WX    TMP DP  RH WIND       PRES   REMARKS
WATERLOO       FAIR      45  36  70 N12       30.19R
DUBUQUE        FAIR      46  34  62 NE10      30.16R
DECORAH        FAIR      41  36  81 NE8       30.18R
MASON CITY     SUNNY     40  32  73 N8        30.24R WCI  34
CHARLES CITY   FAIR      41  41 100 NE8       30.21R
OELWEIN        FAIR      43  37  81 NE9G15    30.19R
$$

...ELSEWHERE IN IOWA...


CITY           SKY/WX    TMP DP  RH WIND       PRES   REMARKS
DES MOINES     CLOUDY    48  36  63 N10       30.19R
IOWA CITY      FAIR      49  35  58 N10       30.17R
FORT DODGE     CLOUDY    41  32  70 N10       30.23R
MARSHALLTOWN   CLOUDY    44  37  76 N13       30.19R
CEDAR RAPIDS   FAIR      49  35  58 NE12      30.16R
$$

...NORTHERN ILLINOIS...


CITY           SKY/WX    TMP DP  RH WIND       PRES   REMARKS
CHICAGO-OHARE  FAIR      45  33  63 N20       30.10R
CHICAGO-MIDWAY FAIR      46  35  65 N20       30.10R
MOLINE         FAIR      50  33  52 NE12      30.14R
ROCKFORD       FAIR      46  32  58 NE15      30.14S
PEORIA         FAIR      50  34  54 NE13      30.12R
$$

NOTE: "FAIR" INDICATES FEW OR NO CLOUDS BELOW 12,000 FEET WITH NO
SIGNIFICANT WEATHER AND/OR OBSTRUCTIONS TO VISIBILITY. WIND
SPEEDS ARE IN MILES-PER-HOUR.




USA.gov is the U.S. government's official web portal to all federal, state and local government web resources and services.